TimeMST,TemperatureF,Dew PointF,Humidity,Sea Level PressureIn,VisibilityMPH,Wind Direction,Wind SpeedMPH,Gust SpeedMPH,PrecipitationIn,Events,Conditions,WindDirDegrees,DateUTC
12:15 AM,30.2,30.2,100,30.16,10.0,West,3.5,-,N/A,,Overcast,280,2012-11-19 07:15:00
12:35 AM,30.2,30.2,100,30.17,10.0,West,3.5,-,N/A,,Overcast,270,2012-11-19 07:35:00
12:55 AM,30.2,30.2,100,30.18,10.0,West,3.5,-,N/A,,Overcast,270,2012-11-19 07:55:00
1:35 AM,30.2,30.2,100,30.18,10.0,SE,3.5,-,N/A,,Overcast,130,2012-11-19 08:35:00
1:55 AM,28.4,28.4,100,30.18,10.0,Calm,Calm,-,N/A,,Mostly Cloudy,0,2012-11-19 08:55:00
2:15 AM,28.4,28.4,100,30.19,4.0,North,3.5,-,N/A,,Mostly Cloudy,360,2012-11-19 09:15:00
2:35 AM,26.6,26.6,100,30.19,7.0,NE,4.6,-,N/A,,Mostly Cloudy,50,2012-11-19 09:35:00
2:55 AM,28.4,28.4,100,30.20,10.0,East,3.5,-,N/A,,Overcast,80,2012-11-19 09:55:00
3:15 AM,28.4,28.4,100,30.21,10.0,Calm,Calm,-,N/A,,Mostly Cloudy,0,2012-11-19 10:15:00
3:35 AM,28.4,28.4,100,30.20,10.0,Calm,Calm,-,N/A,,Overcast,0,2012-11-19 10:35:00
3:55 AM,28.4,28.4,100,30.21,10.0,Calm,Calm,-,N/A,,Mostly Cloudy,0,2012-11-19 10:55:00
4:15 AM,28.4,28.4,100,30.21,7.0,Calm,Calm,-,N/A,,Overcast,0,2012-11-19 11:15:00
4:35 AM,28.4,28.4,100,30.21,1.0,Calm,Calm,-,N/A,,Overcast,0,2012-11-19 11:35:00
4:55 AM,28.4,28.4,100,30.22,1.5,Calm,Calm,-,N/A,,Overcast,0,2012-11-19 11:55:00
5:15 AM,28.4,28.4,100,30.22,7.0,Calm,Calm,-,N/A,,Overcast,0,2012-11-19 12:15:00
5:35 AM,30.2,30.2,100,30.22,2.0,Calm,Calm,-,N/A,,Overcast,0,2012-11-19 12:35:00
5:55 AM,30.2,30.2,100,30.23,0.5,NE,3.5,-,N/A,Fog,Light Freezing Fog,50,2012-11-19 12:55:00
6:35 AM,30.2,30.2,100,30.24,7.0,Calm,Calm,-,N/A,,Overcast,0,2012-11-19 13:35:00
6:55 AM,30.2,30.2,100,30.25,0.5,Calm,Calm,-,N/A,Fog,Light Freezing Fog,0,2012-11-19 13:55:00
7:15 AM,30.2,30.2,100,30.24,0.5,Calm,Calm,-,N/A,Fog,Light Freezing Fog,0,2012-11-19 14:15:00
7:35 AM,30.2,30.2,100,30.24,0.8,Calm,Calm,-,N/A,,Overcast,0,2012-11-19 14:35:00
7:55 AM,30.2,30.2,100,30.26,0.5,NW,5.8,-,N/A,Fog,Light Freezing Fog,310,2012-11-19 14:55:00
8:15 AM,30.2,30.2,100,30.26,1.0,Calm,Calm,-,N/A,,Overcast,0,2012-11-19 15:15:00
8:35 AM,30.2,30.2,100,30.27,4.0,ENE,3.5,-,N/A,,Overcast,60,2012-11-19 15:35:00
8:55 AM,30.2,30.2,100,30.27,4.0,Calm,Calm,-,N/A,,Overcast,0,2012-11-19 15:55:00
9:15 AM,30.2,30.2,100,30.27,7.0,Calm,Calm,-,N/A,,Overcast,0,2012-11-19 16:15:00
9:35 AM,32.0,32.0,100,30.27,10.0,Calm,Calm,-,N/A,,Overcast,0,2012-11-19 16:35:00
9:55 AM,32.0,32.0,100,30.28,10.0,Calm,Calm,-,N/A,,Overcast,0,2012-11-19 16:55:00
10:15 AM,32.0,32.0,100,30.27,10.0,Calm,Calm,-,N/A,,Overcast,0,2012-11-19 17:15:00
10:35 AM,32.0,32.0,100,30.29,10.0,Calm,Calm,-,N/A,,Overcast,0,2012-11-19 17:35:00
10:55 AM,32.0,32.0,100,30.29,10.0,Calm,Calm,-,N/A,,Mostly Cloudy,0,2012-11-19 17:55:00
11:15 AM,32.0,32.0,100,30.29,10.0,East,3.5,-,N/A,,Mostly Cloudy,90,2012-11-19 18:15:00
11:35 AM,33.8,33.8,100,30.29,10.0,SSE,4.6,-,N/A,,Mostly Cloudy,150,2012-11-19 18:35:00
11:55 AM,33.8,33.8,100,30.29,10.0,SE,3.5,-,N/A,,Overcast,140,2012-11-19 18:55:00
12:15 PM,33.8,33.8,100,30.28,10.0,Calm,Calm,-,N/A,,Overcast,0,2012-11-19 19:15:00
12:35 PM,35.6,33.8,93,30.27,10.0,Calm,Calm,-,N/A,,Overcast,0,2012-11-19 19:35:00
12:55 PM,35.6,32.0,87,30.27,10.0,Calm,Calm,-,N/A,,Overcast,0,2012-11-19 19:55:00
1:15 PM,35.6,32.0,87,30.27,10.0,Calm,Calm,-,N/A,,Overcast,0,2012-11-19 20:15:00
1:35 PM,37.4,33.8,87,30.27,10.0,SSE,3.5,-,N/A,,Overcast,160,2012-11-19 20:35:00
1:55 PM,37.4,33.8,87,30.27,10.0,Calm,Calm,-,N/A,,Overcast,0,2012-11-19 20:55:00
2:15 PM,37.4,33.8,87,30.27,10.0,Calm,Calm,-,N/A,,Overcast,0,2012-11-19 21:15:00
2:35 PM,37.4,33.8,87,30.27,10.0,Calm,Calm,-,N/A,,Overcast,0,2012-11-19 21:35:00
2:55 PM,37.4,32.0,81,30.27,10.0,Calm,Calm,-,N/A,,Overcast,0,2012-11-19 21:55:00
3:15 PM,37.4,33.8,87,30.27,10.0,Calm,Calm,-,N/A,,Light Drizzle,0,2012-11-19 22:15:00
3:35 PM,35.6,33.8,93,30.27,10.0,NNW,3.5,-,N/A,,Overcast,330,2012-11-19 22:35:00
3:55 PM,35.6,33.8,93,30.27,10.0,NW,3.5,-,N/A,,Overcast,320,2012-11-19 22:55:00
4:15 PM,35.6,33.8,93,30.27,10.0,Calm,Calm,-,N/A,,Overcast,0,2012-11-19 23:15:00
4:35 PM,35.6,33.8,93,30.28,10.0,SSW,3.5,-,N/A,,Overcast,200,2012-11-19 23:35:00
4:55 PM,33.8,33.8,100,30.28,10.0,Calm,Calm,-,N/A,,Overcast,0,2012-11-19 23:55:00
5:15 PM,33.8,33.8,100,30.28,10.0,NW,4.6,-,N/A,,Overcast,320,2012-11-20 00:15:00
5:35 PM,33.8,33.8,100,30.28,10.0,West,3.5,-,N/A,,Overcast,260,2012-11-20 00:35:00
5:55 PM,32.0,32.0,100,30.29,10.0,WNW,4.6,-,N/A,,Overcast,290,2012-11-20 00:55:00
6:15 PM,32.0,32.0,100,30.29,10.0,Calm,Calm,-,N/A,,Overcast,0,2012-11-20 01:15:00
6:35 PM,32.0,32.0,100,30.29,10.0,WSW,3.5,-,N/A,,Overcast,240,2012-11-20 01:35:00
6:55 PM,33.8,33.8,100,30.30,10.0,WNW,3.5,-,N/A,,Overcast,300,2012-11-20 01:55:00
7:15 PM,32.0,32.0,100,30.29,10.0,Calm,Calm,-,N/A,,Overcast,0,2012-11-20 02:15:00
7:35 PM,32.0,32.0,100,30.29,10.0,WNW,3.5,-,N/A,,Overcast,290,2012-11-20 02:35:00
7:55 PM,32.0,32.0,100,30.29,10.0,Calm,Calm,-,N/A,,Overcast,0,2012-11-20 02:55:00
8:15 PM,32.0,32.0,100,30.29,10.0,West,3.5,-,N/A,,Overcast,270,2012-11-20 03:15:00
8:35 PM,32.0,32.0,100,30.29,7.0,West,4.6,-,N/A,,Mostly Cloudy,280,2012-11-20 03:35:00
8:55 PM,32.0,32.0,100,30.29,10.0,Calm,Calm,-,N/A,,Overcast,0,2012-11-20 03:55:00
9:15 PM,32.0,32.0,100,30.29,7.0,NW,3.5,-,N/A,,Overcast,310,2012-11-20 04:15:00
9:35 PM,32.0,32.0,100,30.29,7.0,NW,3.5,-,N/A,,Overcast,320,2012-11-20 04:35:00
9:55 PM,32.0,32.0,100,30.29,7.0,Calm,Calm,-,N/A,,Mostly Cloudy,0,2012-11-20 04:55:00
10:15 PM,30.2,30.2,100,30.29,4.0,Calm,Calm,-,N/A,,Scattered Clouds,0,2012-11-20 05:15:00
10:35 PM,30.2,30.2,100,30.30,0.8,West,3.5,-,N/A,,Mostly Cloudy,270,2012-11-20 05:35:00
10:55 PM,30.2,30.2,100,30.29,4.0,Calm,Calm,-,N/A,,Scattered Clouds,0,2012-11-20 05:55:00
11:15 PM,30.2,30.2,100,30.29,7.0,Calm,Calm,-,N/A,,Clear,0,2012-11-20 06:15:00
11:35 PM,28.4,28.4,100,30.30,10.0,Calm,Calm,-,N/A,,Clear,0,2012-11-20 06:35:00
11:55 PM,28.4,28.4,100,30.30,7.0,West,4.6,-,N/A,,Clear,270,2012-11-20 06:55:00